Weather in Chania

Greece     35°30′48″N   24°01′10″E
temp.,
°C
wind,
m/s
gust,
m/s
humid.,
%
clouds,
%
prec.,
mm/h
press.,
hPa
HPBL,
m
13 april, tue
tue1300:00+12ssw1140100 0.0 102241
03:00+11s113759 0.0 102137
06:00+11sw22345 0.0 102043
09:00+15nw113626 0.0 1020129
12:00+17n324111 0.0 1020579
15:00+18n33476 0.0 1019618
18:00+17nne12525 0.0 1018318
21:00+14sse2254100 0.0 101843
14 april, wed
wed1400:00+14sw224388 0.0 101817
03:00+14ssw214244 0.0 101716
06:00+14s224132 0.0 101616
09:00+17ese024154 0.0 1016108
12:00+19nne3440100 0.0 1016668
15:00+19nne344528 0.0 1016597
18:00+17ene23537 0.0 1015328
21:00+14sw11670 0.0 101615
15 april, thu
thu1500:00+14wsw12628 0.0 101629
03:00+13wsw23646 0.0 101691
06:00+12sw23595 0.0 1015115
09:00+15wnw34529 0.0 1016312
12:00+18nw454699 0.0 1016703
15:00+17nw5550100 0.0 1016641
18:00+15wnw465868 0.0 1015418
21:00+13w236671 0.0 1016155
16 april, fri
fri1600:00+12sw2252100 0.0 101695
03:00+13sse2141100 0.0 101537
06:00+12se114320 0.0 101547
09:00+16e334811 0.0 1015212
12:00+18ne4454100 0.0 1015495
15:00+17ne3361100 0.0 1017521
18:00+16e5770100 0.0 1013299
21:00+15ese5775100 0.0 1013239
17 april, sat
sat1700:00+17ese3559100 0.0 101287
03:00+17ssw2246100 0.0 100839
06:00+17ssw3347100 0.0 100650
09:00+19w275212 0.0 1006261
12:00+21ne1651100 0.0 1007416
15:00+21nnw3557100 0.0 1007408
18:00+19nw2267100 0.0 1007198
21:00+17wsw2262100 0.0 100935